Wetbulb
54.05 53.95 53.81 53.84 53.56 53.22 53.39 53.51 53.25 52.89 52.86 51.87 51.12 50.55 50.79 50.52 46.55 42.92 39.94 47.54 49.59 53.88 49.16 39.07 40.88 42.43 46.22 44.78 46.42 49.99 41.66 38.79 40.78 39.57 40.64 40.50 39.90 46.25 49.52 48.62 49.85 55.44 58.28 60.08 61.70
53.56 53.61 53.25 53.46 53.34 53.44 53.18 53.26 53.38 53.73 54.42 52.59 52.88 52.81 51.61 49.17 36.12 36.64 48.56 53.22 53.72 52.83 38.75 35.89 35.78 40.14 39.17 40.97 41.18 42.96 39.91 37.09 38.54 37.57 37.42 37.93 40.18 41.66 43.80 45.16 48.14 49.95 53.04 57.75 60.96
53.15 53.21 52.81 52.73 52.92 53.20 53.23 52.87 53.16 53.55 53.70 54.30 51.93 50.47 49.75 41.85 32.69 33.48 50.50 52.47 52.72 48.16 38.98 37.82 37.22 40.97 34.60 37.81 36.24 37.92 34.85 34.26 36.77 37.38 37.39 37.32 38.04 43.38 43.25 41.01 44.56 42.74 46.10 50.85 58.53
52.97 52.87 52.55 52.17 52.42 52.68 52.91 52.86 52.71 53.20 53.36 54.35 52.83 49.67 47.38 35.76 26.55 36.37 50.21 50.69 50.62 42.99 38.97 36.26 33.85 32.49 30.49 29.98 34.02 33.65 33.94 34.26 36.12 36.45 34.08 34.92 36.79 34.20 40.61 40.64 38.49 39.61 40.92 45.43 49.93
52.53 52.56 52.05 51.75 52.06 52.22 52.45 52.48 52.38 52.99 54.26 53.45 53.37 48.92 36.84 29.72 31.51 41.36 48.24 44.40 40.86 39.57 35.96 34.30 31.73 29.73 26.92 30.05 32.71 30.20 31.90 34.44 35.11 33.41 33.38 35.16 32.22 33.21 36.95 37.12 38.63 38.13 39.21 40.20 42.43
52.16 52.26 51.68 51.35 51.65 51.70 51.89 51.98 51.77 52.37 52.79 52.05 50.47 47.43 33.74 25.72 38.94 40.98 39.47 40.21 38.82 37.73 36.25 35.24 33.01 32.78 30.24 29.94 29.39 32.04 33.19 30.43 32.80 31.74 32.81 31.34 31.02 32.57 37.88 36.49 35.80 36.27 36.77 38.63 39.80
51.77 51.95 51.67 51.39 51.30 50.97 51.14 51.41 51.11 51.70 51.79 50.41 48.80 39.47 33.12 31.41 39.31 39.61 39.30 38.89 39.13 37.98 36.00 36.95 35.82 32.94 31.64 29.06 32.17 31.84 27.12 28.17 29.03 30.28 30.28 32.72 29.37 30.72 33.61 34.47 33.59 34.33 35.33 37.14 39.09
51.74 51.72 51.72 51.39 51.39 50.36 50.20 50.41 50.38 50.48 50.88 48.91 45.48 34.80 29.68 38.83 39.44 39.06 38.94 37.79 39.04 38.32 37.28 37.42 36.41 32.74 29.53 30.65 27.78 24.17 23.94 21.72 26.99 28.87 30.34 29.75 23.87 30.74 33.06 32.24 31.82 32.95 33.77 35.56 37.98
51.71 51.73 51.44 51.42 51.36 49.53 49.37 49.70 49.70 49.03 48.26 45.28 35.79 31.43 28.05 40.77 35.83 37.26 37.26 35.72 36.47 36.49 36.97 39.08 34.45 28.42 28.24 21.56 19.87 20.21 18.14 18.75 21.77 28.46 28.85 27.48 23.40 29.98 33.36 31.97 30.94 32.01 32.83 34.32 36.23
51.70 51.80 51.42 51.24 50.91 48.83 48.14 47.77 47.59 43.76 41.04 37.64 37.08 30.27 32.08 30.89 34.72 36.81 36.58 36.66 33.30 32.34 32.29 30.27 27.27 24.20 22.31 20.00 16.69 17.94 17.37 19.45 18.60 24.58 26.98 24.54 24.19 28.99 31.18 30.77 30.27 30.66 31.44 33.69 35.46
51.58 51.68 51.27 50.80 49.94 48.07 39.44 33.68 31.66 30.92 33.32 29.06 28.98 27.85 31.03 35.79 36.37 34.99 36.27 33.72 31.89 29.20 23.58 26.28 23.25 18.73 19.69 21.31 21.74 20.28 18.29 17.20 19.88 26.32 24.99 23.14 23.75 26.71 29.43 29.44 29.16 30.39 31.47 35.56 36.68
51.62 51.68 51.06 50.50 48.76 46.26 38.05 32.99 32.74 32.21 26.75 31.53 31.58 32.09 33.90 33.41 29.40 32.70 36.57 28.89 27.85 22.97 24.07 22.66 19.16 23.33 25.51 25.75 23.74 21.76 19.23 17.20 22.04 25.29 25.10 22.46 22.28 25.84 27.51 28.63 29.25 30.24 31.91 34.31 35.18
51.73 51.32 50.49 49.60 46.55 38.82 35.47 34.94 38.80 35.58 25.98 28.10 30.64 30.06 30.71 33.49 27.98 29.37 33.29 28.37 24.72 23.31 21.34 20.42 21.99 26.46 26.19 23.43 23.78 20.89 19.84 18.62 18.93 23.23 23.10 20.64 18.61 21.75 27.40 28.59 29.99 32.30 32.88 34.87 33.77
51.60 50.67 49.25 47.47 39.04 35.31 32.71 38.44 37.88 33.43 15.88 25.06 27.75 29.76 31.66 31.03 26.32 32.69 32.72 29.09 25.84 22.26 22.45 20.56 24.31 24.94 23.90 23.30 24.65 20.22 24.22 22.93 20.75 19.12 13.66 20.69 13.26 18.25 23.63 25.06 28.10 30.32 30.13 32.02 33.04
51.39 49.62 48.10 44.98 35.30 33.10 36.49 38.02 35.84 32.14 13.31 26.26 27.07 33.99 30.96 27.63 26.31 28.63 31.99 29.41 24.16 23.56 23.01 21.37 21.18 21.98 22.27 24.54 26.41 22.47 25.10 21.90 22.01 18.07 16.72 16.43 12.40 17.35 22.44 23.29 25.95 29.11 30.83 31.49 33.01
49.98 48.46 47.07 41.01 36.44 36.20 37.56 34.69 31.93 21.28 13.47 18.41 25.57 25.88 25.88 27.19 26.36 27.80 27.90 31.42 28.35 24.60 23.73 21.88 24.67 24.01 24.15 27.12 26.51 26.28 22.23 20.74 18.85 16.41 6.69 14.62 14.43 15.66 19.53 23.87 24.89 28.37 30.49 31.33 31.36
48.19 46.90 43.03 40.98 34.49 37.24 35.20 30.33 22.73 16.49 20.94 17.56 17.66 24.84 23.79 23.27 24.54 24.38 23.67 22.67 19.57 14.19 11.40 19.37 21.40 22.50 25.60 22.09 23.94 23.09 15.71 8.92 9.40 6.57 9.07 15.89 15.05 18.27 24.15 26.23 26.13 26.80 28.23 30.27 30.25
47.65 44.16 41.51 39.73 37.64 36.96 31.81 26.36 17.46 13.82 10.55 23.61 23.33 22.58 19.95 21.96 21.79 22.00 20.65 15.92 22.16 16.81 9.54 10.11 14.36 20.82 24.91 21.65 18.83 21.10 16.39 9.93 2.91 6.44 9.55 17.84 11.25 20.13 25.70 27.98 28.22 27.43 28.54 29.71 30.10
46.02 37.65 36.45 37.07 37.84 31.70 26.25 12.96 17.85 15.38 22.76 22.35 22.04 14.99 8.74 18.89 18.30 18.32 14.32 13.76 20.71 17.45 12.15 6.68 14.03 21.44 24.66 23.34 21.79 18.70 11.33 18.81 9.46 10.26 7.08 12.15 16.44 22.73 26.44 25.82 26.17 26.27 27.07 27.23 29.16
37.48 34.92 34.42 37.04 33.17 28.24 19.96 20.41 15.29 24.26 24.62 23.34 19.05 18.37 9.24 8.23 14.85 13.36 11.25 16.47 20.46 23.48 17.11 14.04 9.17 21.38 22.96 23.32 22.76 20.44 22.38 11.24 8.88 -1.37 -0.18 10.21 12.34 15.39 22.13 24.43 25.52 25.17 26.05 27.52 29.06
37.15 27.56 34.01 35.96 31.70 23.56 14.83 11.91 14.80 24.94 25.52 23.56 21.33 13.28 14.97 13.46 11.71 6.56 10.76 15.02 20.63 22.28 20.90 10.02 12.29 17.08 18.62 14.51 17.37 17.95 15.08 12.31 10.81 11.82 5.87 5.40 10.87 20.56 22.81 24.48 23.47 24.70 26.07 27.82 29.35
34.97 21.95 33.21 32.91 21.73 8.11 9.77 13.03 25.34 24.68 25.09 24.19 22.43 21.93 20.03 16.32 11.92 12.68 11.01 16.60 23.35 24.68 20.31 19.10 9.80 10.42 13.59 18.90 21.11 20.42 17.88 16.34 8.02 6.40 11.33 12.82 11.73 24.89 24.27 24.15 23.46 24.25 29.06 29.61 30.70
29.24 23.74 32.76 30.79 16.93 11.54 11.32 20.21 23.85 23.12 24.34 22.18 21.06 23.55 21.47 19.00 14.43 17.81 18.48 23.43 24.35 24.75 19.98 20.36 8.42 3.80 13.27 13.75 17.06 11.89 18.84 21.01 17.34 15.63 7.67 5.13 11.04 23.08 22.05 23.21 27.95 27.03 28.62 29.78 30.28
27.26 25.51 27.95 24.72 19.52 17.36 12.37 16.13 18.16 25.24 24.21 25.31 22.75 23.35 21.41 19.45 20.39 12.49 19.82 24.72 25.28 26.77 30.81 27.12 12.86 12.67 11.28 13.33 8.57 6.12 8.88 18.91 13.58 6.14 10.59 12.80 17.45 23.60 25.36 24.80 26.34 27.72 28.86 29.26 29.09
30.45 24.73 25.30 22.89 23.02 14.18 19.12 21.16 19.75 19.35 21.42 24.58 22.22 21.94 18.69 11.55 18.00 17.75 20.60 21.87 24.50 27.96 26.90 19.43 8.72 11.22 15.55 17.90 14.27 16.81 15.45 14.29 14.77 17.50 11.10 18.40 16.84 22.22 25.59 25.51 26.28 27.93 27.99 27.51 28.61
31.39 24.79 22.70 18.21 20.43 20.05 19.24 19.41 21.49 21.65 20.85 19.37 19.18 23.08 20.87 16.82 20.14 18.78 21.00 20.85 20.74 22.80 23.55 21.60 9.78 9.55 9.70 17.11 17.38 14.39 17.22 17.29 18.10 17.91 17.46 18.15 17.20 25.17 26.52 27.26 25.31 25.55 26.51 27.59 27.46
34.76 31.36 30.64 25.94 20.15 19.07 19.48 22.97 23.35 24.48 24.32 25.44 24.46 22.77 21.41 23.56 24.31 22.45 23.19 23.78 23.33 22.05 21.79 17.27 11.32 2.71 2.38 12.79 12.02 10.25 14.47 16.79 16.07 17.76 18.37 13.60 20.19 24.50 23.70 25.32 25.49 26.47 26.84 26.34 27.14
MSLP
1025.67 1025.42 1025.18 1024.78 1024.74 1024.50 1023.92 1023.89 1023.60 1023.11 1022.73 1022.55 1022.06 1021.78 1021.76 1021.79 1021.81 1020.89 1021.54 1023.14 1022.26 1021.27 1020.72 1020.46 1019.85 1019.61 1019.34 1019.70 1019.87 1019.75 1020.77 1021.53 1021.62 1021.70 1021.42 1021.04 1020.84 1019.57 1018.81 1018.01 1017.24 1016.01 1015.82 1015.55 1015.56
1025.92 1025.71 1025.61 1025.17 1025.07 1024.51 1024.29 1024.03 1023.94 1023.51 1023.02 1022.62 1022.44 1021.94 1021.68 1021.79 1022.03 1021.77 1023.18 1022.56 1022.24 1021.26 1021.00 1021.35 1020.89 1020.51 1020.68 1021.14 1021.26 1021.41 1022.07 1023.02 1023.10 1023.02 1022.60 1022.19 1021.62 1020.81 1019.88 1018.98 1017.50 1016.70 1016.27 1016.08 1015.96
1026.06 1026.11 1026.01 1025.58 1025.23 1024.93 1024.38 1024.16 1024.00 1023.59 1023.15 1022.77 1022.45 1022.18 1022.08 1021.71 1022.50 1023.97 1023.27 1022.80 1022.22 1021.62 1021.51 1021.52 1021.44 1021.38 1022.46 1022.75 1023.44 1023.23 1023.99 1024.23 1023.94 1023.75 1023.35 1022.71 1021.99 1021.50 1020.72 1019.75 1019.48 1018.91 1017.39 1016.66 1016.09
1026.56 1026.53 1026.32 1025.95 1025.56 1025.09 1024.67 1024.37 1024.25 1023.93 1023.53 1022.94 1022.59 1022.15 1022.09 1022.25 1024.85 1024.83 1023.82 1023.19 1022.44 1021.91 1021.75 1021.84 1021.91 1022.80 1024.09 1024.57 1024.56 1024.87 1024.87 1024.86 1024.67 1024.31 1023.82 1023.47 1023.14 1022.47 1021.42 1021.02 1020.45 1019.77 1018.75 1017.36 1016.48
1026.71 1026.57 1026.67 1026.29 1025.75 1025.27 1025.08 1024.68 1024.66 1024.27 1023.78 1023.37 1022.74 1022.26 1022.43 1025.06 1026.33 1025.14 1024.45 1023.84 1022.94 1022.48 1022.87 1023.09 1023.22 1024.02 1025.11 1025.55 1025.40 1025.36 1025.50 1025.31 1025.14 1024.70 1024.36 1024.04 1023.53 1022.30 1021.61 1021.02 1020.30 1019.54 1018.62 1017.59 1016.70
1027.03 1027.18 1027.05 1026.42 1025.74 1025.46 1025.16 1025.03 1024.88 1024.47 1024.05 1023.66 1023.41 1023.25 1024.06 1025.74 1026.51 1025.81 1025.26 1024.28 1024.07 1023.84 1023.87 1023.91 1024.70 1024.46 1025.17 1025.93 1025.92 1025.84 1025.67 1025.65 1025.26 1025.27 1025.17 1024.38 1022.88 1022.08 1021.32 1020.86 1020.17 1019.46 1018.83 1017.94 1016.97
1027.93 1027.63 1026.79 1026.34 1026.09 1025.76 1025.42 1025.17 1024.54 1024.38 1024.30 1024.05 1023.89 1024.25 1025.06 1026.60 1026.35 1026.08 1025.56 1025.19 1024.97 1024.48 1024.44 1024.69 1024.81 1024.88 1025.67 1026.60 1026.78 1026.33 1026.26 1026.19 1026.01 1026.08 1026.08 1024.90 1023.27 1022.52 1021.99 1021.78 1021.10 1019.98 1018.99 1018.07 1016.87
1027.74 1027.49 1027.37 1027.15 1026.59 1026.00 1025.60 1024.94 1024.80 1024.88 1024.58 1024.56 1024.49 1024.67 1025.84 1026.01 1026.17 1025.80 1025.67 1025.30 1025.02 1024.60 1024.84 1024.89 1024.98 1025.51 1026.90 1027.59 1027.83 1027.83 1027.60 1027.64 1026.88 1026.58 1026.60 1026.04 1024.35 1022.92 1022.51 1022.05 1021.05 1020.48 1019.18 1018.11 1017.22
1028.62 1028.38 1027.84 1027.22 1026.55 1026.17 1025.70 1025.25 1025.34 1025.23 1024.95 1024.66 1024.94 1025.19 1026.30 1025.99 1026.36 1026.72 1026.61 1026.59 1025.80 1025.32 1025.34 1025.30 1025.81 1027.75 1028.43 1029.10 1029.48 1029.70 1029.46 1029.42 1028.26 1027.39 1027.36 1027.09 1025.04 1023.52 1022.72 1022.24 1021.46 1020.80 1019.78 1018.48 1017.24
1028.14 1027.76 1027.34 1026.84 1026.29 1025.91 1025.59 1025.68 1025.48 1025.14 1025.36 1025.30 1025.72 1026.15 1027.00 1027.78 1027.47 1027.08 1026.94 1026.65 1026.61 1026.40 1026.16 1026.91 1028.28 1029.92 1030.52 1030.05 1031.10 1031.09 1030.72 1030.03 1029.19 1028.19 1027.59 1026.74 1025.39 1023.49 1022.68 1022.43 1021.78 1021.12 1019.99 1018.87 1017.76
1028.46 1028.14 1027.75 1027.30 1026.87 1026.41 1025.95 1025.88 1026.46 1027.02 1027.27 1028.27 1028.57 1028.41 1028.16 1028.01 1027.47 1027.44 1027.34 1027.25 1027.32 1027.88 1028.43 1029.18 1030.15 1031.63 1031.69 1031.06 1030.91 1030.74 1030.63 1030.73 1029.50 1028.95 1028.24 1027.10 1025.54 1024.27 1023.02 1022.14 1021.65 1021.04 1020.24 1019.15 1018.20
1028.58 1028.32 1027.93 1027.61 1027.30 1026.99 1027.20 1028.79 1029.98 1030.53 1029.91 1029.30 1028.84 1028.55 1028.54 1028.61 1028.33 1028.11 1027.78 1028.36 1028.69 1029.45 1029.63 1030.14 1031.39 1031.81 1031.35 1030.90 1030.63 1030.60 1030.61 1030.67 1029.30 1028.89 1028.25 1027.93 1025.80 1024.49 1023.32 1022.65 1022.09 1021.37 1020.59 1019.86 1018.65
1028.75 1028.53 1028.21 1027.84 1027.67 1028.12 1029.25 1030.07 1030.15 1030.15 1029.98 1029.62 1029.19 1028.94 1028.96 1028.98 1029.44 1029.55 1028.94 1029.20 1029.83 1029.99 1030.55 1030.77 1031.76 1031.59 1031.06 1030.63 1030.17 1030.25 1030.51 1030.63 1030.96 1029.81 1029.18 1028.66 1026.67 1025.18 1023.25 1022.71 1021.67 1020.86 1020.48 1019.70 1018.97
1028.97 1028.86 1028.43 1027.75 1028.27 1029.35 1030.00 1030.24 1030.04 1029.77 1030.31 1030.16 1029.42 1029.31 1029.36 1029.66 1030.07 1029.70 1029.38 1029.57 1029.97 1030.66 1030.99 1031.58 1031.53 1031.51 1030.88 1030.49 1030.14 1029.85 1030.04 1030.51 1030.69 1030.51 1031.02 1030.14 1028.89 1025.84 1023.99 1022.94 1021.98 1021.16 1020.42 1019.62 1019.19
1028.97 1028.89 1028.73 1028.36 1029.31 1029.76 1030.33 1030.20 1030.05 1030.09 1031.65 1030.96 1029.94 1029.55 1029.78 1030.24 1030.62 1030.09 1029.83 1029.42 1030.45 1030.88 1031.19 1031.77 1031.72 1031.62 1031.06 1030.63 1030.31 1030.38 1029.92 1030.57 1030.79 1030.98 1031.56 1031.08 1031.10 1025.33 1024.30 1023.07 1022.18 1021.33 1020.69 1020.00 1019.43
1029.11 1029.09 1028.85 1029.24 1029.81 1030.13 1030.10 1029.96 1030.19 1031.13 1031.46 1031.24 1030.65 1030.37 1030.45 1030.74 1030.81 1030.55 1030.38 1030.37 1031.28 1031.63 1032.01 1032.16 1031.94 1031.73 1031.25 1030.93 1030.88 1030.50 1030.32 1030.85 1031.11 1031.42 1031.86 1031.45 1030.92 1026.30 1024.10 1022.97 1022.40 1021.30 1020.73 1020.22 1019.52
1029.17 1029.13 1029.20 1029.86 1030.48 1030.30 1030.37 1030.45 1031.71 1032.51 1032.66 1032.20 1031.60 1031.43 1031.72 1032.09 1031.88 1031.88 1031.94 1032.38 1033.13 1033.32 1033.59 1033.10 1032.42 1031.97 1031.92 1031.59 1031.45 1031.33 1031.18 1031.84 1032.09 1032.17 1032.28 1030.92 1030.32 1025.21 1022.93 1022.23 1021.94 1021.33 1020.93 1020.18 1019.62
1029.28 1029.36 1030.10 1030.52 1030.58 1030.68 1030.93 1031.51 1032.20 1032.38 1032.68 1032.08 1032.21 1032.52 1033.22 1033.62 1033.53 1033.40 1033.47 1033.98 1034.20 1034.35 1035.22 1035.46 1033.25 1032.71 1032.48 1032.60 1032.64 1032.57 1032.69 1033.61 1034.92 1035.25 1032.88 1030.88 1029.22 1024.16 1022.09 1021.41 1021.04 1020.62 1020.35 1019.94 1019.48
1029.31 1030.20 1030.51 1030.95 1030.58 1030.71 1031.63 1032.81 1031.74 1031.96 1031.28 1031.82 1032.62 1033.57 1034.35 1034.66 1034.91 1034.58 1034.79 1034.82 1034.96 1035.16 1035.62 1036.40 1034.73 1033.45 1033.24 1033.06 1033.31 1033.27 1033.91 1034.22 1034.83 1035.38 1035.16 1030.55 1027.41 1024.11 1021.59 1021.17 1020.65 1020.29 1020.08 1019.49 1018.76
1029.79 1030.43 1030.91 1030.97 1030.89 1031.21 1032.63 1033.24 1032.32 1031.56 1031.13 1031.30 1032.03 1033.26 1034.82 1035.56 1035.79 1035.71 1035.88 1035.42 1035.48 1035.51 1035.61 1036.83 1035.92 1034.22 1033.80 1033.62 1033.71 1033.81 1034.30 1034.95 1035.98 1036.30 1034.92 1030.89 1027.95 1024.63 1021.82 1020.96 1020.55 1020.16 1019.66 1018.96 1018.32
1030.15 1031.14 1031.13 1030.86 1031.06 1032.55 1033.91 1033.96 1032.90 1031.76 1031.35 1031.16 1031.45 1032.80 1033.96 1035.18 1035.84 1036.49 1036.22 1035.67 1035.32 1035.62 1035.76 1036.52 1036.74 1035.26 1034.56 1034.12 1033.93 1034.35 1034.66 1035.73 1036.19 1036.38 1035.37 1032.97 1026.33 1021.85 1021.38 1020.77 1020.68 1020.12 1019.36 1018.75 1017.93
1030.16 1031.64 1031.66 1031.36 1032.33 1034.07 1034.80 1033.50 1032.49 1031.90 1031.58 1031.23 1031.16 1031.90 1032.83 1034.20 1035.42 1035.92 1035.70 1034.92 1034.32 1034.63 1035.54 1036.08 1036.85 1036.22 1034.82 1034.24 1034.10 1034.19 1034.40 1034.93 1035.88 1036.13 1035.09 1033.39 1025.65 1020.49 1020.36 1020.49 1020.34 1019.84 1018.79 1018.08 1017.41
1029.95 1031.23 1031.62 1031.91 1033.03 1033.97 1033.85 1033.50 1032.69 1032.00 1031.46 1031.42 1031.49 1031.58 1032.33 1033.18 1034.26 1034.38 1034.32 1033.51 1033.91 1034.42 1034.86 1035.68 1036.77 1036.44 1035.04 1035.23 1034.66 1034.58 1034.21 1034.59 1034.87 1034.85 1033.35 1032.60 1024.65 1020.85 1020.43 1020.26 1019.62 1019.06 1018.12 1017.46 1016.61
1029.82 1031.13 1031.93 1031.95 1032.80 1032.58 1033.14 1032.73 1032.06 1031.35 1031.10 1031.06 1031.49 1031.93 1032.32 1032.75 1033.26 1033.68 1033.59 1033.18 1033.37 1033.62 1033.87 1034.80 1036.15 1036.26 1035.50 1034.42 1034.45 1034.75 1033.98 1034.01 1033.78 1033.64 1031.02 1028.26 1023.57 1020.73 1020.17 1020.30 1019.30 1018.49 1017.67 1016.88 1016.26
1028.38 1029.38 1029.68 1031.56 1032.01 1031.99 1031.54 1031.34 1031.18 1030.97 1031.00 1031.03 1031.54 1031.02 1031.48 1032.66 1032.85 1032.86 1032.54 1032.74 1033.11 1032.90 1033.65 1034.70 1036.00 1035.98 1035.32 1034.44 1034.34 1032.51 1032.78 1032.69 1031.99 1030.11 1030.02 1024.46 1024.86 1021.02 1019.98 1019.96 1019.27 1018.37 1017.43 1016.74 1015.92
1026.55 1028.26 1029.80 1029.94 1030.23 1030.95 1030.96 1030.04 1029.29 1029.36 1029.71 1030.31 1030.53 1029.76 1030.33 1030.54 1030.13 1030.66 1031.38 1032.10 1031.95 1033.00 1033.57 1034.82 1035.57 1036.30 1035.63 1033.99 1033.80 1031.87 1030.24 1029.89 1029.73 1029.18 1028.13 1025.85 1024.22 1021.18 1020.38 1019.80 1018.93 1017.91 1017.12 1016.29 1015.65
1024.29 1025.60 1026.36 1028.14 1029.28 1029.57 1028.68 1027.43 1027.08 1027.46 1028.04 1027.74 1028.37 1029.37 1029.85 1028.43 1029.05 1029.59 1030.07 1030.48 1031.00 1031.97 1033.29 1034.66 1036.09 1037.14 1035.78 1034.30 1033.40 1029.99 1026.27 1026.69 1027.22 1026.43 1025.68 1025.35 1021.89 1020.98 1019.79 1019.10 1018.44 1017.70 1017.11 1016.48 1015.80
Wind_Speed
20 20 20 19 18 16 17 17 18 19 18 15 13 8 3 4 8 20 24 14 17 23 19 10 5 7 2 5 6 2 4 3 1 5 7 7 10 7 9 6 7 3 3 4 6
20 20 19 19 17 17 16 16 17 17 19 19 16 10 5 4 4 21 21 26 23 22 8 10 8 9 6 5 5 5 3 4 3 3 4 11 5 11 7 9 7 13 5 9 3
20 20 19 19 18 16 16 16 17 18 19 18 17 13 6 1 6 8 27 27 23 16 3 2 2 4 8 6 7 6 4 4 4 7 7 6 6 7 6 4 12 24 29 24 9
19 18 19 17 17 16 15 15 16 17 17 17 17 12 11 6 7 7 27 24 19 9 9 9 9 6 7 6 4 6 4 3 4 6 9 7 7 14 4 7 11 15 19 20 20
18 19 18 17 17 17 15 14 14 14 14 16 18 18 10 10 5 10 23 17 7 9 11 6 11 4 6 4 3 5 3 4 4 6 7 4 14 8 3 9 14 17 17 18 19
18 17 17 18 18 18 15 13 12 12 13 13 14 12 10 12 8 9 11 8 9 7 9 10 5 4 8 3 3 2 3 5 2 8 7 13 10 1 4 14 23 20 18 17 17
14 15 18 19 19 20 16 13 13 10 12 10 10 4 11 7 3 8 8 4 7 4 6 5 3 5 2 3 4 2 3 4 5 5 5 12 7 3 7 17 20 23 18 19 18
15 16 16 17 18 21 17 12 10 7 8 6 9 4 6 1 4 8 10 5 8 5 4 8 7 7 7 4 7 6 6 6 5 9 5 6 10 8 14 19 23 20 23 19 21
12 12 14 17 18 22 15 9 8 6 7 7 6 4 3 6 8 6 5 4 7 5 8 4 7 7 9 4 5 8 1 2 10 4 5 7 13 9 18 14 19 19 19 20 19
15 16 18 20 18 22 12 5 7 7 7 2 3 6 7 6 6 8 5 4 6 4 5 12 8 5 6 5 4 4 5 5 5 6 7 12 15 22 16 13 14 17 15 17 18
13 14 16 18 15 17 6 5 8 6 12 5 0 2 2 8 3 7 4 4 4 11 6 6 10 6 5 2 4 3 3 4 4 3 13 7 19 21 15 9 12 13 12 15 18
13 14 15 16 12 15 5 7 2 1 4 2 1 2 1 2 6 10 7 6 8 6 5 6 5 5 6 2 2 1 1 3 10 2 7 7 21 15 8 6 6 10 9 11 15
11 12 14 15 5 7 6 4 1 2 5 3 2 3 4 6 2 8 6 3 6 6 6 7 3 7 2 2 5 2 3 5 5 13 5 11 8 6 6 4 8 10 7 10 8
9 9 12 11 7 1 4 5 3 1 8 6 4 4 3 2 2 3 4 2 5 3 3 2 3 4 3 3 4 4 3 6 9 7 4 8 8 7 6 11 6 10 11 11 8
7 7 9 12 5 4 2 3 2 3 5 1 4 2 2 4 4 6 4 5 3 1 5 2 3 4 3 3 3 7 8 6 2 3 3 4 1 12 4 6 8 13 14 12 8
4 5 4 4 4 1 3 1 4 10 7 3 3 4 1 5 5 6 6 7 2 2 4 1 2 1 3 4 2 11 3 1 3 3 3 3 3 9 4 6 7 8 14 10 9
7 12 6 2 1 3 2 3 8 6 4 6 1 4 2 5 4 7 6 7 5 7 9 7 1 3 2 4 2 7 5 5 9 9 5 5 5 14 10 11 6 7 12 11 9
6 6 6 2 2 2 3 7 5 3 6 2 2 3 3 7 4 6 2 3 3 4 5 5 8 2 5 2 2 5 2 6 5 4 7 6 8 11 6 10 8 7 8 8 12
6 2 3 4 4 3 6 5 10 8 6 8 2 6 6 4 1 3 3 3 2 2 6 4 7 2 1 3 2 2 5 2 4 2 2 6 7 13 8 9 7 8 6 10 13
3 2 1 5 3 5 8 7 3 2 5 3 6 4 4 4 2 3 1 4 3 1 1 4 5 1 1 1 3 1 5 3 4 3 6 7 9 10 10 10 10 10 11 13 14
3 3 2 2 4 7 5 9 5 5 2 4 6 5 4 5 4 2 3 4 4 3 4 5 4 4 3 3 6 1 1 5 4 3 4 6 11 10 15 12 9 12 14 15 16
4 1 3 1 5 2 4 7 4 4 2 2 2 2 7 7 5 2 6 7 7 7 6 5 5 5 8 2 2 2 5 6 6 5 5 3 17 5 8 6 5 11 19 18 18
4 3 1 2 4 3 3 3 3 4 5 4 5 3 2 7 2 5 5 4 8 7 7 7 2 5 7 5 5 4 5 4 4 2 9 5 14 3 3 6 16 20 18 19 19
4 3 1 3 0 6 5 5 4 3 3 4 4 3 3 4 2 4 4 4 8 7 7 8 3 7 8 7 4 4 4 9 7 5 5 19 25 30 25 18 17 21 22 21 20
4 6 4 6 6 4 4 7 5 6 2 5 1 7 9 4 4 7 5 3 5 9 5 6 6 6 11 14 8 22 15 12 20 22 10 17 14 28 25 21 21 20 21 19 21
7 6 0 3 2 9 7 10 13 5 11 6 7 12 9 9 12 11 8 6 7 4 7 3 4 3 6 12 12 21 22 19 25 24 25 30 34 32 31 24 19 18 18 20 19
4 2 4 8 6 7 9 9 15 11 9 7 14 7 12 19 7 0 3 4 7 10 9 7 3 3 8 3 7 15 12 13 7 8 10 14 19 12 13 12 12 15 19 19 18
Wind_Direction
39 34 33 33 30 36 41 39 37 35 35 24 4 4 12 25 16 45 44 352 342 337 341 317 2 354 34 57 36 128 82 180 13 15 314 355 349 326 307 321 318 280 243 280 321
36 33 29 30 25 30 34 34 28 28 30 30 29 43 87 87 33 43 360 354 345 346 1 10 359 350 52 30 25 57 101 35 60 321 313 316 300 316 337 332 301 324 335 339 318
33 27 25 26 23 21 25 26 18 15 15 19 24 27 351 45 58 338 345 345 342 355 324 295 271 57 58 24 1 2 74 327 8 346 323 298 322 342 320 316 339 341 329 324 296
32 25 19 20 19 17 18 20 17 15 10 13 23 18 22 32 68 296 339 340 340 359 18 16 33 55 69 56 332 95 12 10 353 330 349 2 356 324 292 342 334 331 325 333 333
27 20 12 12 16 16 11 16 15 16 11 18 10 25 48 33 37 300 333 331 352 5 29 30 44 71 83 87 57 71 326 337 323 352 5 344 330 257 256 309 319 326 328 328 327
23 15 9 6 10 8 5 5 12 18 17 21 19 24 66 66 265 312 319 331 13 12 15 32 42 56 94 81 89 222 226 314 353 8 39 352 294 342 258 342 332 329 321 314 311
19 11 10 5 1 360 352 346 1 9 11 19 29 66 64 75 340 313 338 344 341 8 26 21 7 82 91 51 338 340 36 19 5 13 44 324 318 307 308 327 320 316 315 308 302
14 9 3 358 356 356 346 337 1 354 1 359 32 67 82 238 284 7 348 334 1 25 39 4 36 80 45 319 10 31 51 9 4 357 14 22 271 280 314 324 316 314 315 316 310
8 2 360 357 355 351 346 334 338 337 359 357 38 90 57 333 12 329 31 334 313 2 31 33 55 60 12 42 30 5 312 319 315 22 3 27 279 300 311 313 308 316 311 313 312
3 1 357 354 356 353 344 332 349 23 359 21 77 45 15 315 303 327 332 23 36 333 28 33 52 65 7 42 45 316 350 301 247 323 346 306 280 311 310 318 309 308 316 324 328
1 360 355 354 359 353 14 20 21 355 34 73 331 124 310 288 328 334 347 340 26 55 47 19 55 20 304 19 170 183 197 271 261 296 338 305 300 300 310 319 322 316 322 352 355
356 355 353 352 4 14 52 70 92 198 57 5 12 24 317 343 6 338 17 55 36 51 349 42 46 283 265 286 183 170 270 293 295 266 344 331 300 295 304 297 274 305 315 345 358
353 354 349 341 14 38 61 90 304 228 98 6 25 15 340 21 62 315 21 55 48 52 21 92 280 310 277 333 28 55 71 340 285 324 6 328 297 314 301 315 319 329 315 329 355
351 354 354 342 47 344 44 323 348 35 76 299 359 7 340 345 61 310 3 95 41 92 70 90 323 311 327 48 23 3 158 304 304 11 313 18 293 303 290 313 314 318 321 319 329
349 359 33 40 153 78 211 309 342 45 32 219 310 327 333 76 305 352 315 24 76 78 94 254 340 327 347 352 357 261 305 288 253 115 36 355 301 271 294 308 316 323 315 313 319
30 16 23 20 44 331 302 51 54 44 261 308 290 328 2 16 12 309 17 44 34 92 36 304 313 273 300 325 292 272 331 93 85 125 39 188 108 276 269 244 291 313 311 305 318
84 58 57 36 355 325 339 52 36 125 347 289 277 23 69 6 17 24 28 14 26 29 14 336 286 311 320 311 298 354 9 351 2 8 247 173 325 251 276 277 230 290 295 296 299
85 66 40 69 331 0 34 47 103 216 220 328 32 45 72 357 31 354 64 67 23 59 85 64 330 29 354 20 281 355 55 130 213 282 287 310 226 256 236 281 280 267 271 280 295
108 29 63 338 359 70 63 58 205 197 164 150 73 60 321 354 70 29 44 177 202 167 120 83 285 321 -0 326 15 325 46 197 115 98 321 258 279 284 287 285 279 290 295 289 303
85 67 32 331 23 56 76 247 213 238 132 164 157 144 190 265 44 58 16 224 180 105 92 219 330 169 295 281 19 23 169 62 22 16 298 281 284 248 284 283 302 307 304 303 302
70 34 274 16 71 46 162 222 251 238 262 161 175 141 182 182 154 211 226 278 214 147 109 135 105 272 50 187 174 142 345 46 114 148 208 295 253 208 246 263 282 301 298 296 299
117 343 307 332 76 107 174 198 190 183 233 238 113 109 169 160 144 203 219 218 183 160 160 198 141 260 235 224 321 289 202 165 128 249 235 261 268 228 229 259 277 278 303 300 297
167 169 297 49 172 220 289 257 243 164 200 164 176 173 172 169 130 188 201 208 169 165 166 184 281 339 339 360 356 215 196 199 99 117 207 164 259 313 302 289 300 303 302 305 303
112 153 288 68 227 141 142 227 218 206 180 151 153 89 126 177 222 189 233 213 182 193 179 150 168 194 204 217 135 265 205 201 159 182 200 228 283 286 290 298 299 302 303 306 307
133 230 181 183 227 185 164 162 160 187 226 185 262 205 167 155 150 228 194 191 179 208 159 138 210 185 257 277 245 266 252 204 215 225 222 261 265 275 288 300 295 294 296 301 308
154 153 187 151 136 152 189 215 182 175 153 229 219 189 181 171 186 192 159 192 200 158 154 167 258 128 263 260 277 275 262 239 238 241 254 259 271 272 279 281 283 284 295 309 308
140 101 140 151 159 141 205 200 203 142 214 184 204 134 197 231 173 245 110 114 166 158 177 152 154 46 267 6 312 284 250 203 191 216 215 221 243 277 286 288 286 296 302 304 302